Regional Weather Roundup
Issued by NWS

Home | Current Version | Previous Version | Graphics & Text | Print | Product List | Glossary On
Versions: 1 2 3 4 5 6 7 8 9 10 11 12 13 14 15 16 17 18 19 20 21 22 23 24 25 26 27 28 29 30 31 32 33 34 35 36 37 38 39 40 41 42 43 44 45 46 47 48 49 50
000
ASUS43 KMKX 011721
RWRWI

WISCONSIN REGIONAL WEATHER ROUNDUP
NATIONAL WEATHER SERVICE MILWAUKEE/SULLIVAN WI
1200 PM CDT SUN MAY 01 2016

NOTE: "FAIR" INDICATES FEW OR NO CLOUDS BELOW 12,000 FEET WITH NO
SIGNIFICANT WEATHER AND/OR OBSTRUCTIONS TO VISIBILITY.

WIZ001-002-006>008-014>016-023>028-011800-
NORTHWEST WISCONSIN

CITY           SKY/WX    TMP DP  RH WIND       PRES   REMARKS
SUPERIOR ARPT  SUNNY     45  35  69 E16G24    30.26S
ASHLAND        CLOUDY    46  38  73 NE15      30.24F
HAYWARD        SUNNY     50  36  58 N14G23    30.18F
SIREN          SUNNY     53  35  50 NE10G17   30.18F
CUMBERLAND     SUNNY     52  36  54 N13G18    30.15F
RICE LAKE      SUNNY     55  36  48 N13       30.16F
CHETEK         SUNNY     56  34  42 NE7       30.13F
LADYSMITH      SUNNY     57  35  43 NE9       30.15F
EAU CLAIRE     SUNNY     58  33  39 NE13      30.11F
MENOMONIE      SUNNY     59  33  37 NE8G18    30.12F
NEW RICHMOND   SUNNY     56  34  44 NE14      30.14F
OSCEOLA        SUNNY     55  37  51 N8        30.19S
$$

WIZ003>005-009-010-017-018-011800-
NORTH CENTRAL WISCONSIN

CITY           SKY/WX    TMP DP  RH WIND       PRES   REMARKS
MANITOWISH WTR SUNNY     55  32  42 NE8       30.15F
ARBOR VITAE    SUNNY     57  29  35 E7G18     30.13F
WOODRUFF       SUNNY     57  29  35 E7G18     30.13F
RHINELANDER    SUNNY     58  30  34 E12       30.12F
EAGLE RIVER    SUNNY     57  26  29 NE8G18    30.12F
LAND O LAKES   SUNNY     57  29  34 NE8G17    30.15F
PHILLIPS       SUNNY     56  31  38 E9G20     30.12F
TOMAHAWK       SUNNY     57  31  36 NE6       30.12F
MEDFORD        MOSUNNY   56  32  40 NE12      30.10F
MERRILL        MOSUNNY   60  33  36 E12       30.10F
$$

WIZ029-030-035-036-043>047-011800-
CENTRAL WISCONSIN

CITY           SKY/WX    TMP DP  RH WIND       PRES   REMARKS
WAUSAU         CLOUDY    58  28  32 E12G18    30.08F
MOSINEE        PTSUNNY   52  28  40 NE8       30.11F
MARSHFIELD     MOSUNNY   55  30  38 E14       30.09F
STEVENS POINT  CLOUDY    51  32  49 E13       30.10F
WAUPACA        CLOUDY    55  40  55 NE7       30.10S
WAUTOMA        CLOUDY    54  41  62 NE10      30.08F
WISC RAPIDS    CLOUDY    54  35  48 E8        30.11F
CAMP DOUGLAS   CLOUDY    52  45  76 NE10      30.08F
$$

WIZ011>013-019>022-031-037>040-048>050-011800-
NORTHEAST WISCONSIN

CITY           SKY/WX    TMP DP  RH WIND       PRES   REMARKS
ANTIGO         CLOUDY    56  33  40 NE12      30.10F
SHAWANO        CLOUDY    56  36  46 E10       30.11F
OCONTO         PTSUNNY   53  35  49 NE13      30.12F
STURGEON BAY   CLOUDY    54  37  54 E12       30.14F
GREEN BAY      CLOUDY    50  39  66 NE16G23   30.11S
MANITOWOC      MOSUNNY   53  40  61 NE12G22   30.08F
APPLETON       PTSUNNY   50  36  57 NE12G18   30.08S
CLINTONVILLE   CLOUDY    54  34  47 NE8       30.10F
OSHKOSH        CLOUDY    50  41  71 NE14      30.08S
$$

WIZ032>034-041-042-053>061-011800-
SOUTHWEST WISCONSIN

CITY           SKY/WX    TMP DP  RH WIND       PRES   REMARKS
LA CROSSE      MOSUNNY   55  37  50 NE7G17    30.08F
SPARTA         CLOUDY    53  38  57 NE13G22   30.09F
VIROQUA        CLOUDY    51  40  66 NE14      30.06S
BOSCOBEL       CLOUDY    52  39  61 NE6       30.06S
PRAIRIE DU CHI CLOUDY    51  37  60 NE10      30.05S
PLATTEVILLE    CLOUDY    49  43  80 NE15      30.04R
$$

WIZ056-057-062-063-064-067-068-011800-
SOUTH CENTRAL WISCONSIN

CITY           SKY/WX    TMP DP  RH WIND       PRES   REMARKS
REEDSBURG      CLOUDY    47  41  79 NE10      30.07S
BARABOO/DELLS  CLOUDY    48  41  77 NE10      30.07S
LONE ROCK      CLOUDY    49  41  74 NE8       30.07R
MINERAL POINT  CLOUDY    50  43  76 NE8G15    30.04R
MADISON        CLOUDY    50  44  80 NE12      30.04F
MIDDLETON      CLOUDY    49  44  81 NE10      30.05F
WATERTOWN      CLOUDY    53  44  72 E14G20    30.03F
MONROE         CLOUDY    45  43  93 NE8G16    30.03R
JANESVILLE     CLOUDY    46  45  93 NE13G20   30.02S
$$

WIZ051-052-058>065-066-070>072-011800-
SOUTHEAST WISCONSIN

CITY           SKY/WX    TMP DP  RH WIND       PRES   REMARKS
MILWAUKEE      CLOUDY    47  39  74 NE14G23   30.05R
WAUKESHA       CLOUDY    48  37  66 NE15G25   30.05S
MILWAUKEE/TIMM CLOUDY    48  36  61 NE17G23   30.05S
RACINE         CLOUDY    45  38  76 N14       30.05S
BURLINGTON     CLOUDY    49  43  79 NE15      30.02F
KENOSHA        CLOUDY    46  42  86 NE13      30.03S
FOND DU LAC    CLOUDY    53  42  66 NE14      30.07S
SHEBOYGAN      PTSUNNY   50  39  66 NE17      30.08R
WEST BEND      CLOUDY    52  37  58 E14G21    30.05S
JUNEAU         CLOUDY    52  42  70 NE14G21   30.06F
$$

LSZ147-162-011800-
LAKE SUPERIOR

STATION/POSITION TIME  TEMP    WIND        PRES    WAVE
                       AIR SEA DIR/SP/G            HT/PER
                 (UTC) (F)     (DEG/KT/KT) (MB)    (FT/S)
W MID LAKE BUOY  1650   39 37   50/ 12/ 16 1024.9F   3/ 5
DEVILS ISLAND    1700   39      50/ 10/ 11 1025.4F
SAXON HARBOR     1640   39      30/ 12/ 13 1023.7S
$$

LMZ867-665-643>646-011800-
LAKE MICHIGAN

STATION/POSITION TIME  TEMP    WIND        PRES    WAVE
                       AIR SEA DIR/SP/G            HT/PER
                 (UTC) (F)     (DEG/KT/KT) (MB)    (FT/S)
CHAMBERS ISLAND  1600   44      10/ 10/ 13 1020.7R
N MID LAKE BUOY  1650   41 39   50/  8/ 10 1020.8R   1/ 3
NORTHPORT PIER   1600   43      70/ 13/ 15 1020.7R
ALGOMA LAKESHORE 1600           50/ 14/ 17   N/A
KEWAUNEE LAKESHO 1700   46      20/ 11/ 16 1018.6F
SHEBOYGAN LAKESH 1700   42      10/ 17/ 19 1019.3R
PORT WASHINGTON  1600   48      40/ 16/ 22 1018.6
S MID LAKE BUOY  1650   42 40   40/ 10/ 12 1016.5R   3/ 5
KENOSHA   LAKESH 1700   43      20/ 17/ 21 1016.9R
$$

TC  - TEMPERATURE IN CELSIUS
VSB - VISIBILITY IN STATUTE MILES
WCI - WIND CHILL INDEX
HX  - HEAT INDEX




USA.gov is the U.S. government's official web portal to all federal, state and local government web resources and services.